Weather in Tuluganovka

Russia / Astrakhan Oblast     46°31′27″N   48°05′11″E
temp.,
°C
wind,
m/s
gust,
m/s
humid.,
%
clouds,
%
prec.,
mm/h
press.,
hPa
HPBL,
m
6 may, thu
thu601:00+14ne3639100 0.0 1018163
04:00+13e3641100 0.0 1019135
07:00+13e3742100 0.0 1019272
10:00+18ese443092 0.0 10191524
13:00+20e332611 0.0 10182318
16:00+22ese44261 0.0 10172349
19:00+19se76361 0.0 10171158
22:00+15sse47390 0.0 1018224
7 may, fri
fri701:00+14sse224411 0.0 101749
04:00+12ne01455 0.0 101717
07:00+14ene1240100 0.0 101890
10:00+18nne1129100 0.0 1019699
13:00+21sw112395 0.0 10181996
16:00+22wsw21216 0.0 10172138
19:00+22wnw212310 0.0 10171234
22:00+17sw473422 0.0 1018201
8 may, sat
sat801:00+15sw36523 0.0 1019162
04:00+14sw23530 0.0 101974
07:00+16ssw22470 0.0 1019127
10:00+21s3329100 0.0 1019818
13:00+24s332567 0.0 10182074
16:00+25s54255 0.0 10172265
19:00+21sse6629100 0.0 1017782
22:00+17s473890 0.0 1017255
9 may, sun
sun901:00+16sse3647100 0.0 1016193
04:00+15se3553100 0.0 1015121
07:00+16ese5125888 0.0 1014439
10:00+23se81131100 0.0 10131461
13:00+25sse91130100 0.0 10121887
16:00+23sse71137100 0.0 10121386
19:00+22se5941100 0.0 1012648
22:00+20sw2347100 0.0 1013142
10 may, mon
mon1001:00+16wnw91258100 0.1 1014531
04:00+11w91264100 0.1 1016653
07:00+9wnw81177100 0.1 1018593
10:00+9wnw71076100 0.3 1019634
13:00+9nw6979100 1.4 1019685
16:00+9wnw5886100 4.9 1020582
19:00+9wnw4988100 2.0 1020559
22:00+9nw398647 2.5 1021440